Location: Barrio Las Umbrías
(40.4173°N, 4.8685°W)
Time: 13:30:41
(UTC+00:00)

Cosmos 1842 Rocket - Pass Details

Date: 17 August 2022
Orbit: 605 x 633 km, 82.5° (Epoch: 27 September)

Event Time Altitude Azimuth Distance (km) Brightness Sun altitude
Rises 19:32:29 0° 348° (NNW) 2,871 7.5 -4.1°
Reaches altitude 10° 19:34:43 10° 345° (NNW) 1,961 6.7 -4.5°
Maximum altitude 19:39:00 62° 265° (W) 683 4.1 -5.2°
Drops below altitude 10° 19:43:15 10° 185° (S) 1,947 5.9 -6.0°
Sets 19:45:28 0° 182° (S) 2,847 6.7 -6.4°
